STARLINK-35965, 66631

Orbit data source: Space-Track

STARLINK-35965, 66631 is a payload satellite owned by SpaceX/Seattle (US) in LEO that was launched on Sun, 23 Nov 2025 UTC via an FALCON 9 launch vehicle from the Air Force Western Test Range (AFWTR). Payload-class satellites include a variety of spacecraft equipped with specific instruments for various scientific and technological missions. These include communications satellites like Starlink; space stations such as the ISS; scientific satellites like the Hubble; Earth observation satellites from companies like Planet Labs, Umbra, and HawkEye 360; GPS; miniature CubeSats for education and research; and military/defense satellites.

Loading next visibility...
Identifier
66631, 2025-271Q
Orbit
LEO
Country
Flag of USUS
Related business
Manufacturer
SpaceX/Seattle
Mission
Operational Commercial Communications
Bus & Motor
STARLINK V2MO, Unknown motor
Mass
575 kg wet, ~530 kg dry
Launch date (UTC)
2025-11-23 (1 month ago)
Launch vehicle
FALCON 9
Launch site
Air Force Western Test Range (AFWTR)
Object type
Payload
Rocket body
Debris
Shape & HBR
Box + 2 Pan, 17.7 m
Radar Cross Section
36.964 m²

Expand to show TLE details & history
Last TLE update: 5 hours ago

TLE from 5 hours ago
0 STARLINK-35965
1 66631U 25271Q   25355.50002315  .00020825  00000-0  43440-3 0  9990
2 66631  53.1605 145.3405 0001292  67.7635 310.9980 15.45541551  5656
Epoch: 2025-12-21T12:00Z
TLE epoch observation values (Epoch: 2025-12-21T12:00:02.000Z)
Latitude
14.92021°
Longitude
-113.5295°
Altitude
429.397 km
Speed
7.657 km/s
True Right ascension
10h 27m 09s
True Declination
14° 49' 51"
Sunlit
Object was in full shadow at epoch
Visualization orbit readout
Latitude
Unknown
Longitude
Unknown
Altitude
Unknown
Speed
Unknown
Apparent Right ascension
Unknown
Apparent Declination
Unknown
Sunlit
N/A
Visualization observer readout
Local Sidereal Time
15:47:52
Azimuth
Unknown
Elevation
Unknown
Doppler factor
Unknown
Orbital elements
Apogee altitude
430.925 km
Perigee altitude
429.166 km
Semi-major axis
6,808.182 km
Eccentricity
0.00013
Inclination
53.1605°
RAAN
145.3405°
Arg. of periapsis
67.7635°
True anomaly
310.98682°
Mean anomaly
310.998°
Eccentric anomaly
310.99241°
Mean motion
3.86364 °/min
Orbital period
93.18 mins
BSTAR
0.0004344
Loading maneuver chart data...
Computing Atmospheric mass density...
Loading historical data...
Loading historical data...
Loading historical data...
Loading historical data...
Loading historical data...
Loading historical data...
Loading historical data...

Documentation

Showing up to 5 results
|